Tracking 28091 objects as of 30-Sep-2023
HD Live streaming from Space Station
objects crossing your sky now

SL-3 R/B

Track SL-3 R/B now!
10-day predictions
SL-3 R/B is classified as:


NORAD ID: 4814
Int'l Code: 1970-113B
Perigee: 379.9 km
Apogee: 400.0 km
Inclination: 81.1 °
Period: 92.2 minutes
Semi major axis: 6760 km
RCS: 6.542 m2 (large)
Launch date: December 18, 1970
Source: Commonwealth of Independent States (former USSR) (CIS)
Launch site: PLESETSK MISSILE AND SPACE COMPLEX (PKMTR)

Note: This is a ROCKET BODY
Your satellite tracking list
Your tracking list is empty




NASA's NSSDC Master Catalog

Two Line Element Set (TLE):
1 04814U 70113B   23272.60574565  .00052122  00000-0  59906-3 0  9997
2 04814  81.1320 143.2268 0014834  68.5263 291.7570 15.61674038887858
Source of the keplerian elements: AFSPC